Flag for Western Sahara Weather past 2 weeks in El Aaiún, Western Sahara

Now
88 °F

Warm.


Feels Like: 88 °F
Forecast: 70 / 87 °F
Wind: 21 mph from Northeast

Location: Laayoune/Hassan Isl

Current Time: Aug 30, 2014 at 3:17:01 PM

Latest Report: Aug 30, 2014 at 2:00 PM


Visibility: N/A

Pressure: 30.01 "Hg

Humidity: 43%

Dew point: 63 °F

Location of El AaiúnLocation

Historic Weather in El Aaiún — Graph

°F

El Aaiún temperature yesterday

Maximum temperature yesterday: 93 °F (at 3:00 PM)
Minimum temperature yesterday: 72 °F (at 4:00 AM)
Average temperature yesterday: 78 °F

Past Weeks' High & Low Weather Summary

 TemperatureHumidityPressure
High100 °F (Aug 20, 4:00 PM)94% (Aug 27, 5:43 AM)30.04 "Hg (Aug 27, 5:43 AM)
Low68 °F (Aug 18, 1:00 AM)24% (Aug 21, 5:00 PM)29.83 "Hg (Aug 17, 5:00 PM)
Average77 °F69%29.95 "Hg
* Reported Aug 15 2:00 PM — Aug 30 2:00 PM, El Aaiún, Weather by CustomWeather, © 2014

Note: Actual official high and low records may vary slightly from our data, if they occured in-between our weather recording intervals... More about our weather records

Advertising

El Aaiún weather history for previous 24 hours

 ConditionsComfort  
Time TempWeatherWind HumidityBarometerVisibility
2:00 PM
Aug 30
88 °FWarm.21 mph43%30.01 "HgN/A
1:00 PM84 °FSunny.16 mph51%30.04 "Hg10 mi
12:00 PM81 °FClear.20 mph58%30.04 "Hg5 mi
11:00 AM79 °FWarm.17 mph65%30.04 "HgN/A
10:00 AM75 °FScattered clouds.21 mph74%30.04 "Hg5 mi
9:00 AM72 °FPassing clouds.18 mph83%30.01 "Hg5 mi
8:00 AM72 °FPassing clouds.15 mph83%30.01 "Hg4 mi
7:19 AM70 °FPassing clouds.16 mph88%30.01 "Hg4 mi
7:00 AM70 °FPassing clouds.16 mph88%29.98 "Hg5 mi
6:00 AM70 °FPassing clouds.12 mph88%29.98 "Hg5 mi
5:00 AM70 °FPassing clouds.12 mph88%29.98 "Hg4 mi
4:00 AM70 °FPassing clouds.13 mph94%29.98 "Hg4 mi
3:00 AM72 °FPassing clouds.14 mph88%30.01 "Hg6 mi
2:00 AM72 °FOvercast.15 mph88%30.01 "Hg6 mi
1:00 AM73 °FPassing clouds.15 mph83%30.04 "Hg6 mi
12:15 AM73 °FPassing clouds.15 mph83%30.04 "Hg6 mi
12:00 AM73 °FPassing clouds.17 mph83%30.01 "Hg5 mi
11:44 PM
Aug 29
73 °FPassing clouds.15 mph83%30.04 "Hg6 mi
11:00 PM73 °FPassing clouds.20 mph83%30.01 "Hg5 mi
10:00 PM75 °FSunny.15 mph78%29.98 "Hg10 mi
8:00 PM81 °FClear.15 mph66%29.95 "Hg5 mi
7:00 PM84 °FSunny.18 mph58%29.92 "Hg10 mi
6:00 PM86 °FWarm.17 mph55%29.95 "HgN/A
5:00 PM91 °FHot.18 mph46%29.95 "HgN/A
4:00 PM91 °FSunny.18 mph44%29.92 "Hg10 mi
3:00 PM93 °FExtremely hot.17 mph36%29.95 "HgN/A
Weather by CustomWeather, © 2014

See weather overviewHow to use our weather pages